TimeHST,TemperatureF,Dew PointF,Humidity,Sea Level PressureIn,VisibilityMPH,Wind Direction,Wind SpeedMPH,Gust SpeedMPH,PrecipitationIn,Events,Conditions,WindDirDegrees,DateUTC
12:15 AM,71.6,69.8,94,30.06,10.0,NNW,4.6,-,N/A,,Mostly Cloudy,330,2013-07-06 10:15:00
12:32 AM,71.6,68.0,88,30.06,10.0,WNW,3.5,-,N/A,,Mostly Cloudy,290,2013-07-06 10:32:00
12:53 AM,71.1,69.1,93,30.05,10.0,WNW,3.5,-,0.00,Rain,Light Rain,300,2013-07-06 10:53:00
1:53 AM,70.0,69.1,97,30.03,10.0,WNW,5.8,-,0.00,,Mostly Cloudy,290,2013-07-06 11:53:00
2:53 AM,68.0,68.0,100,30.02,10.0,WNW,6.9,-,N/A,,Partly Cloudy,290,2013-07-06 12:53:00
3:53 AM,70.0,68.0,93,30.02,10.0,NW,5.8,-,N/A,,Partly Cloudy,310,2013-07-06 13:53:00
4:53 AM,69.1,68.0,96,30.01,10.0,WNW,4.6,-,N/A,,Clear,290,2013-07-06 14:53:00
5:25 AM,68.0,66.2,94,30.02,10.0,West,5.8,-,N/A,,Partly Cloudy,280,2013-07-06 15:25:00
5:53 AM,68.0,66.9,96,30.01,10.0,WNW,6.9,-,N/A,,Clear,290,2013-07-06 15:53:00
6:53 AM,69.1,68.0,96,30.03,10.0,West,4.6,-,N/A,,Clear,280,2013-07-06 16:53:00
7:51 AM,73.4,71.6,94,30.04,10.0,ENE,6.9,-,N/A,,Mostly Cloudy,70,2013-07-06 17:51:00
7:53 AM,73.0,70.0,90,30.04,10.0,ENE,5.8,-,N/A,,Mostly Cloudy,70,2013-07-06 17:53:00
8:22 AM,75.2,71.6,89,30.04,10.0,ENE,4.6,-,N/A,,Scattered Clouds,60,2013-07-06 18:22:00
8:53 AM,77.0,70.0,79,30.04,10.0,ENE,6.9,-,N/A,,Clear,60,2013-07-06 18:53:00
9:53 AM,78.1,71.1,79,30.04,10.0,ENE,9.2,-,N/A,,Clear,70,2013-07-06 19:53:00
10:53 AM,79.0,70.0,74,30.04,10.0,ENE,11.5,-,N/A,,Clear,60,2013-07-06 20:53:00
11:53 AM,80.1,69.1,69,30.04,10.0,NE,12.7,-,N/A,,Clear,40,2013-07-06 21:53:00
12:53 PM,80.1,68.0,67,30.02,10.0,NE,11.5,-,N/A,,Clear,50,2013-07-06 22:53:00
1:53 PM,79.0,68.0,69,30.01,10.0,NE,10.4,-,N/A,,Mostly Cloudy,40,2013-07-06 23:53:00
2:53 PM,78.1,68.0,71,30.01,10.0,NE,8.1,-,N/A,,Overcast,40,2013-07-07 00:53:00
3:53 PM,77.0,68.0,74,30.01,10.0,NE,5.8,-,N/A,,Overcast,50,2013-07-07 01:53:00
4:53 PM,77.0,68.0,74,29.99,10.0,NNE,4.6,-,N/A,,Overcast,30,2013-07-07 02:53:00
5:53 PM,73.9,68.0,82,30.00,10.0,North,9.2,-,N/A,,Overcast,360,2013-07-07 03:53:00
6:53 PM,72.0,66.9,84,30.01,10.0,WNW,4.6,-,0.00,,Overcast,290,2013-07-07 04:53:00
7:13 PM,71.6,68.0,88,30.02,8.0,Calm,Calm,-,0.00,Rain,Light Rain,0,2013-07-07 05:13:00
7:33 PM,71.6,68.0,88,30.02,10.0,West,3.5,-,0.00,,Overcast,260,2013-07-07 05:33:00
7:53 PM,72.0,68.0,87,30.02,10.0,West,4.6,-,0.00,,Overcast,280,2013-07-07 05:53:00
8:53 PM,72.0,69.1,91,30.02,10.0,West,5.8,-,0.01,,Overcast,280,2013-07-07 06:53:00
9:53 PM,71.1,69.1,93,30.03,10.0,West,5.8,-,N/A,,Clear,270,2013-07-07 07:53:00
10:53 PM,70.0,68.0,93,30.03,10.0,West,6.9,-,N/A,,Partly Cloudy,280,2013-07-07 08:53:00
11:53 PM,70.0,68.0,93,30.03,10.0,WNW,6.9,-,N/A,,Clear,290,2013-07-07 09:53:00